Tracking 29892 objects as of 21-Nov-2024
HD Live streaming from Space Station
objects crossing your sky now

MIMAN

Track MIMAN now!
10-day predictions
MIMAN is classified as:


NORAD ID: 52900
Int'l Code: 2022-065G
Perigee: 693.1 km
Apogee: 704.5 km
Inclination: 98.1 °
Period: 98.6 minutes
Semi major axis: 7069 km
RCS: Unknown
Launch date: June 21, 2022
Source: South Korea (SKOR)
Launch site: Naro Space Center, South Korea (NSC)

Uplink (MHz):
Downlink (MHz): 436.500
Beacon (MHz):
Mode: 2k4/4k8* FSK
Call sign:
Status: Active

Your satellite tracking list
Your tracking list is empty




NASA's NSSDC Master Catalog

Two Line Element Set (TLE):
1 52900U 22065G   24325.85583642  .00001503  00000-0  31949-3 0  9996
2 52900  98.1450 103.5542 0008108  26.7794 333.3824 14.60464924126710
Source of the keplerian elements: AFSPC